Voltar ao catálogo

SHERPA-FX2/TAGSAT-2

AtivoCiênciaPO
NORAD 48958·PAYLOAD·🇺🇸 United States

Lançado Jun 30, 2021 de Cape Canaveral Space Force Station

Loading…

Próximas Passagens (próximas 24 horas)

TLE

AtualizadoSource: Space-Track

Época: Sep 14, 2026, 01:52 UTC

1 48958U 21059CH  26257.07795458  .00019558  00000-0  24721-3 0  9995
2 48958  97.6786  98.0306 0006237  22.0722 338.0801 15.59564331291263

Acompanhe SHERPA-FX2/TAGSAT-2 em tempo real com AllMySat

Download on the App Store